OK1ZXS-6 Weather Reports


time (UTC)temp
C
wind
direction
speed
KPH
gust
KPH
rain 1hr
cm
rain 24hr
cm
rain mn
cm
humidity
%
barometer
mb
20260905222404 13 292 1.6 6.4 0.00 0.00 0.00 68
20260905220903 13 337 3.2 9.7 0.00 0.00 0.00 68
20260905215403 13 337 1.6 9.7 0.00 0.00 0.00 67
20260905213903 14 247 3.2 8.0 0.00 0.00 0.00 67
20260905212403 14 247 3.2 8.0 0.00 0.00 0.00 66
20260905210902 15 247 3.2 9.7 0.00 0.00 0.00 67
20260905205405 15 270 3.2 9.7 0.00 0.00 0.00 67
20260905203902 15 0 3.2 9.7 0.00 0.00 0.00 67
20260905202404 15 0 4.8 16.1 0.00 0.00 0.00 65
20260905200903 16 337 3.2 11.3 0.00 0.00 0.00 65
20260905195403 16 337 3.2 11.3 0.00 0.00 0.00 65
20260905193902 16 247 6.4 19.3 0.00 0.00 0.00 64
20260905192402 16 292 4.8 19.3 0.00 0.00 0.00 64
20260905190904 16 247 4.8 16.1 0.00 0.00 0.00 66
20260905185404 16 247 3.2 8.0 0.00 0.00 0.00 66
20260905183902 16 247 3.2 11.3 0.00 0.00 0.00 66
20260905182402 16 247 3.2 6.4 0.00 0.00 0.00 66
20260905180903 16 247 3.2 8.0 0.00 0.00 0.00 66
20260905175404 16 270 1.6 9.7 0.00 0.00 0.00 66
20260905173904 17 247 3.2 8.0 0.00 0.00 0.00 65
20260905172405 17 247 3.2 11.3 0.00 0.00 0.00 63
20260905170903 17 270 3.2 12.9 0.00 0.00 0.00 63
20260905165405 17 270 3.2 9.7 0.00 0.00 0.00 63
20260905163902 18 270 6.4 14.5 0.00 0.00 0.00 61
20260905162404 18 270 3.2 12.9 0.00 0.00 0.00 61
20260905160903 18 247 4.8 11.3 0.00 0.00 0.00 60
20260905155405 18 247 6.4 20.9 0.00 0.00 0.00 59
20260905153902 18 315 6.4 19.3 0.00 0.00 0.00 58
20260905152403 18 337 8.0 27.4 0.00 0.00 0.00 59
20260905150903 18 247 8.0 24.1 0.00 0.00 0.00 60
20260905145403 18 270 8.0 38.6 0.00 0.00 0.00 58
20260905143902 18 247 6.4 19.3 0.00 0.00 0.00 58
20260905142404 18 247 8.0 27.4 0.00 0.00 0.00 58
20260905140902 18 247 6.4 19.3 0.00 0.00 0.00 61
20260905135404 18 292 8.0 30.6 0.00 0.00 0.00 57
20260905133901 18 0 9.7 27.4 0.00 0.00 0.00 58
20260905130904 18 0 6.4 22.5 0.00 0.00 0.00 63
20260905125404 18 0 6.4 22.5 0.00 0.00 0.00 65
20260905123903 21 337 4.8 19.3 0.00 0.00 0.00 59
20260905122408 20 270 6.4 19.3 0.00 0.00 0.00 64
20260905120910 17 247 4.8 16.1 0.00 0.00 0.00 68
20260905115403 18 247 4.8 19.3 0.00 0.00 0.00 66
20260905113904 18 0 6.4 19.3 0.00 0.00 0.00 64
20260905112404 18 0 4.8 19.3 0.00 0.00 0.00 64
20260905110902 18 247 8.0 25.7 0.00 0.00 0.00 64
20260905105403 17 247 8.0 27.4 0.00 0.00 0.00 65
20260905103903 17 247 8.0 20.9 0.00 0.00 0.00 69
20260905102404 16 247 6.4 19.3 0.00 0.00 0.00 71
20260905100903 16 247 4.8 14.5 0.00 0.00 0.00 74
20260905095405 16 247 6.4 25.7 0.00 0.00 0.00 74
20260905093902 16 247 4.8 14.5 0.00 0.00 0.00 75
20260905092405 16 270 3.2 17.7 0.00 0.00 0.00 77
20260905090903 16 0 4.8 24.1 0.00 0.00 0.00 78
20260905085404 15 247 6.4 17.7 0.00 0.00 0.00 81
20260905082406 15 270 4.8 12.9 0.00 0.00 0.00 83
20260905080901 14 247 6.4 19.3 0.00 0.00 0.00 84
20260905075404 15 247 6.4 17.7 0.00 0.00 0.00 84
20260905073904 15 225 4.8 14.5 0.00 0.00 0.00 84
20260905072404 14 247 3.2 11.3 0.00 0.00 0.00 86
20260905070903 13 247 3.2 9.7 0.00 0.00 0.00 87
20260905065404 13 247 3.2 11.3 0.00 0.00 0.00 87
20260905063903 13 247 1.6 4.8 0.00 0.00 0.00 87
20260905062405 13 270 1.6 6.4 0.00 0.00 0.00 87
20260905060904 13 270 1.6 6.4 0.00 0.00 0.00 86
20260905055523 13 270 1.6 6.4 0.00 0.00 0.00 86
20260905053903 13 270 3.2 9.7 0.00 0.00 0.00 86
20260905052403 13 337 3.2 9.7 0.00 0.00 0.00 85
20260905050902 13 0 3.2 12.9 0.00 0.00 0.00 84
20260905045403 13 247 3.2 11.3 0.00 0.00 0.00 82
20260905043902 13 0 1.6 8.0 0.00 0.00 0.00 81
20260905042403 13 0 1.6 6.4 0.00 0.00 0.00 83
20260905040902 14 0 0.0 6.4 0.00 0.00 0.00 80
20260905035402 14 0 0.0 3.2 0.00 0.00 0.00 79
20260905033902 15 337 1.6 11.3 0.00 0.00 0.00 78
20260905032402 15 337 0.0 8.0 0.00 0.00 0.00 76
20260905030903 15 0 1.6 8.0 0.00 0.00 0.00 76
20260905025403 15 0 0.0 1.6 0.00 0.00 0.00 76
20260905023903 15 0 1.6 4.8 0.00 0.00 0.00 74
20260905022403 16 0 1.6 3.2 0.00 0.00 0.00 72
20260905020903 16 0 3.2 6.4 0.00 0.00 0.00 72
20260905015403 16 0 3.2 9.7 0.00 0.00 0.00 73
20260905013902 16 0 3.2 8.0 0.00 0.00 0.00 73
20260905012403 17 22 4.8 14.5 0.00 0.00 0.00 74
20260905010902 18 0 6.4 20.9 0.00 0.00 0.00 72
20260905005403 19 247 4.8 14.5 0.00 0.00 0.00 67
20260905003902 18 247 3.2 8.0 0.00 0.00 0.00 69
20260905002403 18 247 1.6 4.8 0.00 0.00 0.00 70
20260905000902 18 247 1.6 6.4 0.00 0.00 0.00 70
20260904235403 18 247 1.6 4.8 0.00 0.00 0.00 70
20260904233902 18 225 1.6 6.4 0.00 0.00 0.00 70
20260904232403 18 247 3.2 8.0 0.00 0.00 0.00 69
20260904230902 18 270 1.6 8.0 0.00 0.00 0.00 71
20260904225402 17 247 1.6 6.4 0.00 0.00 0.00 72